Weather History for Newark, NJ

Change the Weather History Date:

Tuesday, January 31, 2012

  Actual Average Record
Temperature  
Mean Temperature 48 °F 32 °F  
Max Temperature 61 °F 40 °F 64 °F (1947)
Min Temperature 34 °F 25 °F 1 °F (1948)
Degree Days  
Heating Degree Days 17 33  
Month to date heating degree days 861 1036  
Since 1 July heating degree days 2208 2784  
Cooling Degree Days 0 0  
Month to date cooling degree days 0 0  
Year to date cooling degree days 0 0  
Moisture  
Dew Point 25 °F    
Average Humidity 42    
Maximum Humidity 59    
Minimum Humidity 25    
Precipitation  
Precipitation 0.00 in 0.11 in 1.04 in (1937)
Month to date precipitation 2.89 3.54  
Year to date precipitation 2.89 3.54  
Snow  
Snow 0.00 in 0.30 in 4.40 in (1949)
Month to date snowfall 3.3 7.9  
Since 1 July snowfall 8.5 13.7  
Snow Depth 0.00 in    
Sea Level Pressure  
Sea Level Pressure 30.12 in    
Wind  
Wind Speed 10 mph (SW)    
Max Wind Speed 22 mph    
Max Gust Speed 28 mph    
Visibility 10 miles    
Events      
T = Trace of Precipitation, MM = Missing Value Source: NWS Daily Summary

Daily Weather History Graph

Daily Weather History Graph

Search for Another Location

Airport:

Trip Planner

Search our weather history database for the weather conditions in past years. The results will help you decide how hot, cold, wet, or windy it might be!

Date:

Astronomy

Jan. 31, 2012 Rise Set
Actual Time 7:08 AM EST 5:12 PM EST
Civil Twilight 6:39 AM EST 5:41 PM EST
Nautical Twilight 6:06 AM EST 6:14 PM EST
Astronomical Twilight 5:34 AM EST 6:46 PM EST
Moon 11:01 AM EST (1/31) 12:53 AM EST (1/31)
Length of Visible Light 11h 02m
Length of Day
10h 04m
First Quarter, 55% of the Moon is Illuminated
Jan 31
First Quarter
Feb 7
Full
Feb 14
Last Quarter
Feb 21
New
Feb 29
First Quarter

Hourly Weather History & Observations

Time (EST) Temp. Windchill Dew Point Humidity Pressure Visibility Wind Dir Wind Speed Gust Speed Precip Events Conditions
12:51 AM 36.0 °F 32.1 °F 16.0 °F 44% 30.25 in 10.0 mi South 4.6 mph - N/A   Mostly Cloudy
1:51 AM 37.0 °F 34.5 °F 16.0 °F 42% 30.24 in 10.0 mi South 3.5 mph - N/A   Overcast
2:51 AM 37.4 °F 32.8 °F 15.8 °F 41% 30.21 in 10.0 mi South 5.8 mph - N/A   Overcast
3:51 AM 37.0 °F 31.6 °F 19.0 °F 48% 30.19 in 10.0 mi South 6.9 mph - N/A   Overcast
4:51 AM 37.0 °F 31.0 °F 21.0 °F 52% 30.18 in 10.0 mi SW 8.1 mph - N/A   Overcast
5:51 AM 37.0 °F 31.0 °F 21.0 °F 52% 30.17 in 10.0 mi SW 8.1 mph - N/A   Overcast
6:51 AM 35.1 °F 27.9 °F 21.9 °F 59% 30.17 in 10.0 mi SW 9.2 mph - N/A   Scattered Clouds
7:51 AM 36.0 °F 29.6 °F 23.0 °F 59% 30.17 in 10.0 mi SW 8.1 mph - N/A   Scattered Clouds
8:51 AM 37.9 °F 30.9 °F 24.1 °F 57% 30.17 in 10.0 mi WSW 10.4 mph - N/A   Scattered Clouds
9:51 AM 44.1 °F 37.1 °F 24.1 °F 45% 30.17 in 10.0 mi SW 15.0 mph - N/A   Mostly Cloudy
10:51 AM 48.0 °F - 24.1 °F 39% 30.17 in 10.0 mi WSW 12.7 mph - N/A   Mostly Cloudy
11:51 AM 51.8 °F - 24.8 °F 35% 30.13 in 10.0 mi WSW 12.7 mph - N/A   Mostly Cloudy
12:51 PM 57.9 °F - 25.0 °F 28% 30.09 in 10.0 mi WSW 20.7 mph 27.6 mph N/A   Mostly Cloudy
1:51 PM 61.0 °F - 25.0 °F 25% 30.06 in 10.0 mi WSW 17.3 mph - N/A   Mostly Cloudy
2:51 PM 60.1 °F - 28.0 °F 30% 30.05 in 10.0 mi SW 17.3 mph 23.0 mph N/A   Scattered Clouds
3:51 PM 60.1 °F - 28.0 °F 30% 30.03 in 10.0 mi SSW 10.4 mph 19.6 mph N/A   Scattered Clouds
4:51 PM 57.0 °F - 28.9 °F 34% 30.03 in 10.0 mi SSW 11.5 mph - N/A   Scattered Clouds
5:51 PM 54.0 °F - 28.9 °F 38% 30.04 in 10.0 mi SSW 8.1 mph - N/A   Scattered Clouds
6:51 PM 55.0 °F - 28.9 °F 37% 30.06 in 10.0 mi SW 11.5 mph - N/A   Scattered Clouds
7:51 PM 54.0 °F - 28.9 °F 38% 30.06 in 10.0 mi SW 10.4 mph - N/A   Partly Cloudy
8:51 PM 52.0 °F - 28.9 °F 41% 30.06 in 10.0 mi SSW 3.5 mph - N/A   Partly Cloudy
9:51 PM 50.0 °F - 30.0 °F 46% 30.05 in 10.0 mi SW 9.2 mph - N/A   Partly Cloudy
10:51 PM 50.0 °F - 30.0 °F 46% 30.04 in 10.0 mi South 3.5 mph - N/A   Partly Cloudy
11:51 PM 48.9 °F - 30.9 °F 50% 30.03 in 10.0 mi South 3.5 mph - N/A   Partly Cloudy